#timestamp,LO_Frequency,Hit 
1502835535.2,286046996.6,P
1502835555.1,286046999.4,P
1502835556.0,286046999.4,N
1502835575.8,286046996.9,N
1502835595.6,286046997.3,N
1502835615.5,286046996.5,N
1502835635.3,286046997.5,N
1502835655.1,286046993.3,P
1502835675.9,286046996.6,N
1502835695.7,286046999.0,N
1502835715.5,286046999.0,N
1502835735.4,286046997.1,N
1502835755.2,286046995.3,N
1502835775.0,286046996.7,N
1502835775.9,286046996.7,N
1502835795.8,286046995.3,N
1502835815.6,286046997.1,N
1502835835.4,286047000.8,N
1502835855.3,286046999.3,N
1502835875.1,286047001.1,N
1502835895.8,286047001.0,N
1502835915.7,286047002.5,N
1502835935.5,286047001.3,N
1502835955.3,286047002.1,N
1502835975.2,286047000.2,N
1502835995.9,286046998.4,N
1502836015.7,286046998.5,N
1502836035.6,286047000.3,N
1502836055.4,286047000.2,N
1502836075.2,286046998.7,N
1502836095.1,286046996.6,N
1502836096.0,286046996.6,N
1502836115.8,286047000.2,N
1502836135.6,286047001.9,N
1502836155.5,286047001.9,N
1502836175.3,286047000.2,N
1502836195.1,286047001.1,N
1502836215.9,286046997.0,N
1502836235.7,286047000.1,N
1502836255.5,286046997.2,N
1502836275.4,286046995.2,N
1502836295.2,286046997.6,N
1502836315.0,286046999.6,N
1502836315.9,286046999.6,N
1502836335.8,286047000.8,N
1502836355.6,286046998.7,N
1502836375.4,286047002.7,N
1502836395.3,286047002.6,N
1502836415.1,286047000.1,N
1502836435.8,286047001.3,N
1502836455.7,286047005.4,N
1502836475.5,286047002.1,N
1502836495.3,286046999.0,N
1502836515.2,286046997.0,N
1502836535.0,286047000.9,N
1502836535.9,286047000.9,N
1502836555.7,286046999.7,N
1502836575.6,286047001.0,N
1502836595.4,286047000.4,N
1502836615.2,286047002.3,N
1502836635.1,286047004.2,N
1502836636.0,286047004.2,N
1502836655.8,286047006.7,N
1502836675.6,286047007.2,N
1502836695.5,286047005.1,N
1502836715.3,286047003.4,N
1502836735.1,286047003.1,N
1502836755.9,286047003.2,N
1502836775.7,286047000.2,N
1502836795.5,286047002.4,N
1502836815.4,286047003.6,N
1502836835.2,286047003.1,N
1502836855.0,286047003.8,N
1502836855.9,286047003.8,N
1502836875.8,286047005.3,N
1502836895.6,286047007.5,P
1502836915.4,286046999.9,N
1502836935.3,286047000.4,N
1502836955.1,286047002.2,N
1502836975.8,286047003.7,N
1502836995.7,286047001.7,N
1502837015.5,286047001.9,N
1502837035.3,286047003.7,N
1502837055.2,286047005.4,N
1502837075.9,286047003.5,N
1502837095.7,286047002.4,N
1502837115.6,286047001.8,N
1502837135.4,286047002.9,N
1502837155.2,286047009.2,P
1502837175.1,286047003.6,N
1502837176.0,286047003.6,N
1502837195.8,286047005.8,N
1502837215.6,286047001.4,N
1502837235.5,286047006.0,N
1502837255.3,286047003.3,N
1502837275.1,286047003.6,N
1502837295.9,286047000.6,N
1502837315.7,286046999.4,N
1502837335.5,286046996.9,N
1502837355.4,286046999.7,N
1502837375.2,286047002.7,N
1502837395.0,286047002.6,N
1502837395.9,286047002.6,N
1502837415.8,286047002.0,N
1502837435.6,286047002.3,N
1502837455.4,286047000.1,N
1502837475.3,286047002.3,N
1502837495.1,286047003.7,N
1502837496.0,286047003.7,N
1502837515.8,286047005.5,N
1502837535.6,286047005.4,N
1502837555.5,286047005.8,N
1502837575.3,286047003.2,N
1502837595.1,286047004.5,N
1502837615.9,286047004.8,N
1502837635.7,286047006.7,N
1502837655.6,286047008.0,P
1502837675.4,286047006.1,N
1502837695.2,286047007.5,P
1502837715.1,286047007.3,P
1502837716.0,286047007.3,P
1502837735.8,286047004.4,P
1502837755.6,286047002.5,N
1502837775.5,286047003.2,N
1502837795.3,286047006.0,P
1502837815.1,286046998.5,P
1502837835.9,286046998.3,N
1502837855.7,286046997.1,N
1502837875.5,286046996.7,N
1502837895.4,286046993.3,N
1502837915.2,286046997.5,N
1502837935.0,286046996.1,N
1502837935.9,286046996.1,N
1502837955.8,286046995.2,N
1502837975.6,286046997.0,N
1502837995.4,286047001.0,N
